Location: Mount Cross
(36.6390°N, 79.4878°W)
Time: 01:21:41
(UTC+00:00)

Vanguard 2 Rocket - Pass Details

Date: 28 March 2023
Orbit: 554 x 3314 km, 32.9° (Epoch: 08 June)

Event Time Altitude Azimuth Distance (km) Brightness Sun altitude
Rises 00:35:55 0° 250° (WSW) 3,310 10.8 -12.7°
Reaches altitude 10° 00:37:57 10° 247° (WSW) 2,582 10.1 -13.1°
Maximum altitude 00:44:03 64° 167° (SSE) 1,397 7.7 -14.3°
Enters shadow 00:51:58 19° 92° (E) 3,495 9.2 -15.9°
